Date,TemperatureHighF,TemperatureAvgF,TemperatureLowF,DewpointHighF,DewpointAvgF,DewpointLowF,HumidityHigh,HumidityAvg,HumidityLow,PressureMaxIn,PressureMinIn,WindSpeedMaxMPH,WindSpeedAvgMPH,GustSpeedMaxMPH,PrecipitationSumIn
2014-1-1,67,62,59,66,61,55,99,95,83,30.27,30.09,8,4,14,0.04
2014-1-2,85,70,62,73,67,61,99,90,62,30.09,29.85,8,3,22,0.33
2014-1-3,63,49,44,61,40,30,95,74,45,30.30,29.97,13,5,20,0.00
2014-1-4,69,57,45,61,54,41,99,90,71,30.25,30.11,5,2,11,0.00
2014-1-5,87,69,59,70,64,59,99,85,53,30.12,29.98,7,2,16,0.00
2014-1-6,80,62,44,71,54,24,99,79,45,30.33,29.99,10,3,19,0.00
2014-1-7,50,42,35,34,24,14,86,53,27,30.45,30.28,11,4,17,0.00
2014-1-8,68,54,37,57,48,32,93,80,63,30.42,30.29,10,5,19,0.00
2014-1-9,71,64,59,70,63,56,99,96,86,30.33,30.21,7,3,14,0.19
2014-1-10,79,71,67,72,69,67,99,93,75,30.24,30.09,4,1,8,0.00
2014-1-11,87,74,67,74,70,67,99,87,53,30.12,29.96,10,3,20,0.14
2014-1-12,72,61,45,67,52,39,99,78,32,30.23,30.03,8,2,13,0.02
2014-1-13,86,61,42,67,56,42,99,86,50,30.21,30.01,7,1,13,0.00
2014-1-14,78,68,57,71,65,56,99,89,68,30.06,29.95,8,2,11,0.00
2014-1-15,65,55,47,57,50,45,99,84,53,30.09,29.97,4,1,11,0.00
2014-1-16,60,48,36,52,34,21,99,63,27,30.20,29.97,8,2,15,0.05
2014-1-17,70,47,31,47,34,20,99,70,21,30.26,30.14,5,1,9,0.00
2014-1-18,62,48,33,48,30,16,99,56,18,30.31,30.13,8,2,14,0.00
2014-1-19,71,50,30,53,42,29,99,79,44,30.28,30.15,4,1,13,0.00
2014-1-20,77,56,42,60,49,42,99,82,36,30.20,30.06,5,1,11,0.00
2014-1-21,76,61,50,63,55,47,99,83,52,30.07,29.85,8,2,18,0.00
2014-1-22,63,48,33,46,29,18,82,52,21,30.23,29.93,7,2,13,0.00
2014-1-23,68,44,30,39,31,22,99,69,22,30.38,30.21,9,2,13,0.00
2014-1-24,62,47,36,41,35,21,99,66,26,30.50,30.31,10,4,20,0.00
2014-1-25,76,55,41,57,48,38,93,78,49,30.30,30.06,4,1,15,0.00
2014-1-26,68,60,49,63,58,49,99,94,81,30.11,30.02,4,1,8,0.05
2014-1-27,80,66,57,67,62,57,99,88,62,30.07,29.96,4,1,11,0.00
2014-1-28,85,67,52,68,60,51,99,81,48,30.10,29.98,5,1,11,0.00
2014-1-29,66,55,46,64,53,45,99,95,84,30.22,30.00,13,4,18,0.25
2014-1-30,52,49,46,52,49,45,99,99,97,30.20,30.11,8,3,15,0.35
2014-1-31,63,58,51,62,57,51,99,98,97,30.16,30.06,7,3,11,0.57